FREGAT DEB, 45840

Orbit data source: Space-Track

FREGAT DEB, 45840 is space debris in LEO originally from a launch on Mon, 18 Jul 2011 UTC launched from the Tyuratam Missile And Space Complex (TTMTR). Debris objects in space refer to the collection of defunct objects orbiting the Earth. Examples of debris include non-operational satellites, rocket bodies, and fragments generated from explosions, collisions, or faulty payload assembly.

Loading next visibility...
Identifier
45840, 2011-037CA
Orbit
LEO
Country
Flag of CISCIS
Related business
Manufacturer
Lavochkin
Mission
Spacecraft
Bus & Motor
Unknown
Mass
Unknown
Launch date (UTC)
2011-07-18 (15 years ago)
Launch vehicle
Unknown
Launch site
Tyuratam Missile And Space Complex (TTMTR)
Object type
Payload
Rocket body
Debris
Shape & HBR
Unknown shape, 0.1 m
Radar Cross Section
Medium (>0.1 m² and <1 m²)

Expand to show TLE details & history
Last TLE update: 2 days ago

TLE from 2 days ago
0 FREGAT DEB
1 45840U 11037CA  26255.03783589  .00014619  00000-0  46281-2 0  9990
2 45840  51.5474 144.1486 1874208  29.4532 339.9853 11.22622731246348
Epoch: 2026-09-12T00:54Z
TLE epoch observation values (Epoch: 2026-09-12T00:54:29.020Z)
Latitude
-0.00009°
Longitude
139.47503°
Altitude
610.241 km
Speed
8.173 km/s
True Right ascension
09h 36m 35s
True Declination
0° 00' 00"
Sunlit
Object was in daylight at epoch
Visualization orbit readout
Latitude
Unknown
Longitude
Unknown
Altitude
Unknown
Speed
Unknown
Apparent Right ascension
Unknown
Apparent Declination
Unknown
Sunlit
N/A
Visualization observer readout
Local Sidereal Time
16:02:46
Azimuth
Unknown
Elevation
Unknown
Doppler factor
Unknown
Orbital elements
Apogee altitude
3,626.63 km
Perigee altitude
468.354 km
Semi-major axis
8,425.629 km
Eccentricity
0.18742
Inclination
51.5474°
RAAN
144.1486°
Arg. of periapsis
29.4532°
True anomaly
330.63302°
Mean anomaly
339.9853°
Eccentric anomaly
335.53876°
Mean motion
2.80634 °/min
Orbital period
128.28 mins
BSTAR
0.0046281
Loading maneuver chart data...
Computing Atmospheric mass density...
Loading historical data...
Loading historical data...
Loading historical data...
Loading historical data...
Loading historical data...
Loading historical data...
Loading historical data...

Documentation

Showing up to 5 results
|